Location: Marcé
(47.5801°N, 0.3280°W)
Time: 17:02:48
(UTC+01:00)

SR - Pass Details

Date: 08 December 2021
Orbit: 582 x 872 km, 66.7° (Epoch: 22 January)

Event Time Altitude Azimuth Distance (km) Brightness Sun altitude
Rises 23:50:22 0° 223° (SW) 2,951 - -62.2°
Reaches altitude 10° 23:52:44 10° 227° (SW) 2,006 - -62.4°
Maximum altitude 23:57:10 60° 308° (NW) 696 - -62.8°
Drops below altitude 10° 00:01:25 10° 28° (NNE) 1,923 - -63.1°
Sets 00:03:39 0° 33° (NNE) 2,817 - -63.3°
